Probability
0 0 0 0 0 0 0 0 0 0 0 0 0 0 0 0 0 0 0 0 0 0 0 0 0 0 0 0 0 0 0 0 0 0 0 0 0 0 0 0 0 0 0 0
0 0 0 0 0 0 0 0 0 0 0 0 0 0 0 0 0 0 0 0 0 0 0 0 0 0 0 0 0 0 0 0 0 0 0 0 0 0 0 0 0 0 0 0
0 0 0 0 0 0 0 0 0 0 0 0 0 0 0 0 0 0 0 0 0 0 0 0 0 0 0 0 0 0 0 0 0 0 0 0 0 0 0 0 0 0 0 0
0 0 0 0 0 0 0 0 0 0 0 0 0 0 0 0 0 0 0 0 0 0 0 0 0 0 0 0 0 0 0 0 0 0 0 0 0 0 0 0 0 0 0 0
0 0 0 0 0 0 0 0 0 0 0 0 0 0 0 0 0 0 0 0 0 0 0 0 0 0 0 0 0 0 0 0 0 0 0 0 0 0 0 0 0 0 0 0
0 0 0 0 0 0 0 0 0 0 0 0 0 0 0 0 0 0 0 0 0 0 0 0 0 0 0 0 0 0 0 0 0 0 0 0 0 0 0 0 0 0 0 0
0 0 0 0 0 0 0 0 0 0 0 0 0 0 0 0 0 0 0 0 0 0 0 0 0 0 0 0 0 0 0 0 0 0 0 0 0 0 0 0 0 0 0 0
0 0 0 0 0 0 0 0 0 0 0 0 0 0 0 0 0 0 0 0 0 0 0 0 0 0 0 0 0 0 0 0 0 0 0 0 0 0 0 0 0 0 0 0
0 0 0 0 0 0 0 0 0 0 0 0 0 0 0 0 0 0 0 0 0 0 0 0 0 0 0 0 0 0 0 0 0 0 0 0 0 0 0 0 0 0 0 0
0 0 0 0 0 0 0 0 0 0 0 0 0 0 0 0 0 0 0 0 0 0 0 0 0 0 0 0 0 0 0 0 0 0 0 0 0 0 0 0 0 0 0 0
0 0 0 0 0 0 0 0 0 0 0 0 0 0 0 0 0 0 0 0 0 0 0 0 0 0 0 0 0 0 0 0 0 0 0 0 0 0 0 0 0 0 0 0
0 0 0 0 0 0 0 0 0 0 0 0 0 0 0 0 0 0 0 0 0 0 0 0 0 0 0 0 0 0 0 0 0 0 0 0 0 0 0 0 0 0 0 0
0 0 0 0 0 0 0 0 0 0 0 0 0 0 0 0 0 0 0 0 0 0 0 0 0 0 0 0 0 0 0 0 0 0 0 0 0 0 0 0 0 0 0 0
0 0 0 0 0 0 0 0 0 0 0 0 0 0 0 0 0 0 0 0 0 0 0 0 0 0 0 0 0 0 0 0 0 0 0 0 0 0 0 0 0 0 0 0
0 0 0 0 0 0 0 0 0 0 0 0 0 0 0 0 0 0 0 0 0 0 0 0 0 0 0 0 0 0 0 0 0 0 0 0 0 0 0 0 0 0 0 0
0 0 0 0 0 0 0 0 0 0 0 0 0 0 0 0 0 0 0 0 0 0 0 0 0 0 0 0 0 0 0 0 0 0 0 0 0 0 0 0 0 0 0 0
0 0 0 0 0 0 0 0 0 0 0 0 0 0 0 0 0 0 0 0 0 0 0 0 0 0 0 0 0 0 0 0 0 0 0 0 0 0 0 0 0 0 0 0
0 0 0 0 0 0 0 0 0 0 0 0 0 0 0 0 0 0 0 0 0 0 0 0 0 0 0 0 0 0 0 0 0 0 0 0 0 0 0 0 0 0 0 0
0 0 0 0 0 0 0 0 0 0 0 0 0 0 0 0 0 0 0 0 0 0 0 0 0 0 0 0 0 0 0 0 0 0 0 0 0 0 0 0 0 0 0 0
0 0 0 0 0 0 0 0 0 0 0 0 0 0 0 0 0 0 0 0 0 0 0 0 0 0 0 0 0 0 0 0 0 0 0 0 0 0 0 0 0 0 0 0
0 0 0 0 0 0 0 0 0 0 0 0 0 0 0 0 0 0 0 0 0 0 0 0 0 0 0 0 0 0 0 0 0 0 0 0 0 0 0 0 0 0 0 0
0 0 0 0 0 0 0 0 0 0 0 0 0 0 0 0 0 0 0 0 0 0 0 0 0 0 0 0 0 0 0 0 0 0 0 0 0 0 0 0 0 0 0 0
0 0 0 0 0 0 0 0 0 0 0 0 0 0 0 0 0 0 0 0 0 0 0 0 0 0 0 0 0 0 0 0 0 0 0 0 0 0 0 0 0 0 0 0
0 0 0 0 0 0 0 0 0 0 0 0 0 0 0 0 0 0 0 0 0 0 0 0 0 0 0 0 0 0 0 0 0 0 0 0 0 0 0 0 0 0 0 0
0 0 0 0 0 0 0 0 0 0 0 0 0 0 0 0 0 0 0 0 0 0 0 0 0 0 0 0 0 0 0 0 0 0 0 0 0 0 0 0 0 0 0 0
0 0 0 0 0 0 0 0 0 0 0 0 0 0 0 0 0 0 0 0 0 0 0 0 0 0 0 0 0 0 0 0 0 0 0 0 0 0 0 0 0 0 0 0
0 0 0 0 0 0 0 0 0 0 0 0 0 0 0 0 0 0 0 0 0 0 0 0 0 0 0 0 0 0 0 0 0 0 0 0 0 0 0 0 0 0 0 0
Wind_Speed
4 4 3 6 8 7 9 8 9 10 9 12 8 6 6 5 4 4 5 5 5 5 5 4 4 3 3 3 3 2 2 2 2 2 1 0 0 0 0 1 1 1 2 2
4 2 3 8 11 10 10 8 10 9 14 12 8 5 5 5 5 5 6 6 6 5 5 5 5 4 4 4 3 3 3 3 2 1 1 1 1 1 1 1 1 1 2 2
4 4 5 9 11 11 8 9 9 12 12 5 4 6 6 6 6 7 7 6 6 6 5 5 5 5 5 4 3 2 3 2 2 1 1 2 1 1 1 2 1 2 2 2
1 4 7 9 2 7 8 8 11 10 8 6 7 6 5 6 7 8 7 6 6 5 5 5 4 3 3 2 3 3 3 3 2 2 2 2 2 2 2 2 2 2 3 3
2 2 11 11 5 6 7 8 10 13 11 8 5 4 6 6 6 7 7 6 5 5 5 4 4 3 3 2 3 3 4 4 3 3 3 3 3 3 3 2 2 3 3 3
4 3 9 8 2 4 3 8 7 9 10 6 2 2 7 4 3 4 4 4 4 3 2 3 3 3 3 3 3 5 5 4 3 3 4 4 4 3 2 2 3 3 3 3
5 6 14 9 3 5 4 8 3 6 7 7 8 8 5 2 3 3 3 3 3 3 3 4 3 3 4 4 5 5 3 2 3 3 3 4 3 2 2 2 2 3 4 4
7 7 15 7 9 11 11 3 3 4 5 6 7 6 5 4 4 4 3 3 2 3 4 3 3 4 4 6 5 2 2 2 3 3 3 2 2 3 2 2 3 3 3 4
14 14 6 8 10 8 4 4 5 5 5 6 6 7 6 6 5 5 4 4 3 4 4 3 3 4 5 5 3 2 2 3 3 3 3 2 3 3 2 2 3 3 3 4
9 13 10 10 10 8 7 8 7 6 6 5 7 8 7 6 5 5 4 4 3 3 4 4 3 4 5 3 2 3 3 3 3 3 3 2 2 3 3 3 4 4 4 5
10 10 7 10 13 14 11 9 8 8 7 8 8 8 8 7 6 5 5 4 3 4 5 5 4 4 4 2 3 3 4 3 3 3 3 3 3 4 5 5 5 5 5 4
14 12 10 10 8 9 10 11 11 9 8 7 8 9 7 7 6 5 5 4 4 5 5 5 4 5 4 3 4 4 3 3 3 3 3 3 3 3 6 6 8 9 8 6
13 8 9 9 7 7 9 10 9 9 9 8 7 7 7 6 5 4 4 5 6 6 6 5 5 5 4 4 4 5 5 4 3 3 3 3 3 3 4 5 7 8 9 10
10 7 8 11 11 9 8 8 6 6 7 6 6 5 5 5 4 5 6 6 6 5 5 5 5 6 4 4 4 5 5 4 4 4 4 4 4 4 4 4 4 4 6 9
13 12 12 8 7 7 6 5 5 7 6 6 5 5 5 6 7 7 6 4 3 4 5 4 6 6 3 4 5 5 4 4 3 3 3 4 4 3 3 4 4 4 3 5
9 9 9 9 10 8 6 7 8 9 7 6 6 6 7 6 6 5 4 3 4 5 6 5 7 6 3 4 4 4 4 5 4 3 3 3 3 4 4 4 4 4 4 4
8 10 10 10 11 10 9 9 9 8 6 7 7 6 5 4 4 5 5 4 5 6 5 5 6 4 3 4 5 4 3 4 5 4 4 4 4 5 5 5 5 5 5 5
12 13 11 10 9 9 9 8 7 7 7 7 5 4 4 5 6 7 5 3 3 5 6 6 5 3 4 5 5 4 3 3 4 4 4 4 5 4 4 5 5 5 4 4
9 9 8 8 7 6 6 6 6 6 6 4 4 5 5 6 6 5 3 3 4 7 6 4 4 4 5 5 4 3 4 4 4 4 4 5 4 4 4 4 5 5 4 4
7 7 6 6 4 4 5 4 4 4 4 4 4 4 5 5 5 4 4 5 6 5 3 3 4 4 5 5 5 4 4 5 5 4 4 4 4 4 4 4 4 4 4 4
7 6 6 6 5 4 5 4 4 4 4 4 5 6 6 5 4 3 3 5 5 3 3 4 3 4 4 3 5 4 4 4 4 4 4 4 4 4 4 4 4 4 4 4
6 6 6 5 5 4 3 3 3 3 3 3 4 4 3 4 4 4 5 5 3 2 2 3 3 4 4 4 3 4 4 4 4 4 4 4 4 5 5 5 5 4 4 4
4 4 4 5 5 4 2 2 3 3 4 4 4 4 4 4 3 3 5 3 2 3 2 3 4 4 4 3 3 4 4 5 4 4 4 5 5 5 5 5 5 4 4 4
2 2 3 3 3 3 3 3 2 2 3 3 3 3 3 2 3 3 3 2 3 3 3 4 5 4 3 3 3 4 4 4 4 4 4 4 4 4 4 4 4 4 4 5
2 2 1 2 3 3 3 2 1 1 1 1 1 2 2 2 3 3 2 2 3 2 2 3 3 3 2 3 3 4 4 4 4 4 4 4 4 4 4 4 4 4 4 5
1 1 1 1 1 1 1 1 1 1 1 1 2 1 1 1 2 2 1 2 2 2 2 1 2 2 2 3 3 3 3 3 3 4 4 4 4 4 4 4 5 5 5 5
1 1 1 1 1 1 0 1 1 1 2 2 2 2 1 1 1 1 1 1 1 1 1 1 1 2 2 2 2 3 3 3 3 3 3 4 4 4 4 5 5 4 4 5
Wind_Direction
261 276 257 246 242 217 211 211 218 243 250 265 267 264 264 260 259 259 259 249 238 235 235 234 234 233 230 232 227 213 210 223 238 245 251 282 317 317 340 333 308 300 300 298
297 290 273 266 250 229 228 228 240 262 272 262 265 267 266 259 249 249 255 251 243 238 235 234 232 228 224 226 223 208 211 227 232 221 225 237 256 266 286 296 302 306 293 295
279 319 343 274 234 200 206 212 202 225 243 258 262 255 250 248 245 246 249 246 240 237 234 235 232 224 221 222 211 202 214 226 221 216 233 246 249 260 266 271 278 282 286 290
296 11 254 245 194 184 205 233 218 235 250 247 246 259 259 247 241 248 245 240 237 235 236 233 229 223 217 206 196 203 217 225 225 215 234 249 247 248 257 267 269 272 279 279
137 260 280 288 237 182 194 263 222 226 245 253 267 313 288 252 230 231 233 233 232 231 230 226 222 211 194 205 205 212 226 230 225 216 227 236 242 248 254 259 268 273 282 278
149 199 247 252 186 163 126 279 238 205 228 234 172 259 272 258 231 238 239 233 235 238 228 225 224 191 190 213 215 227 234 236 230 221 224 233 241 250 256 253 259 271 278 276
184 225 260 249 174 134 180 246 225 192 210 199 199 221 248 265 252 244 244 245 237 232 227 228 212 182 203 217 229 235 236 236 234 229 229 235 243 250 247 248 261 265 274 279
168 206 251 204 153 190 217 227 199 202 210 211 228 246 257 260 256 252 256 255 237 232 243 239 200 190 215 232 239 228 216 227 236 236 232 229 230 246 243 233 245 258 269 279
194 214 239 181 203 220 205 212 219 214 225 222 235 247 252 255 253 252 246 245 234 226 244 247 217 203 224 241 224 199 205 226 236 239 236 229 223 231 240 235 239 253 257 266
240 254 247 238 242 246 229 227 236 233 235 230 239 248 251 252 249 247 246 243 236 229 240 249 236 228 235 238 198 190 213 228 229 228 241 240 235 229 227 229 237 245 251 260
244 261 279 259 236 236 236 236 240 242 234 232 237 247 245 248 246 242 247 245 230 228 239 248 244 241 239 219 192 208 222 225 230 229 229 236 237 236 239 237 235 243 246 249
226 219 208 237 231 213 216 230 233 235 244 239 227 239 242 245 245 239 241 240 238 240 244 250 243 241 235 213 199 203 221 225 224 225 228 230 243 268 259 256 263 260 260 264
226 220 218 241 247 221 219 232 233 227 230 240 237 228 230 240 243 236 238 236 236 240 243 246 242 242 237 214 204 208 219 222 220 218 220 224 229 240 266 277 266 264 265 267
228 218 240 240 240 233 224 229 228 235 236 233 233 228 223 232 242 240 241 240 238 239 242 240 239 245 236 210 208 218 223 223 218 219 220 222 226 233 238 246 268 274 271 269
226 219 229 240 241 235 222 214 223 236 236 236 226 224 223 227 239 245 246 241 237 241 243 238 242 250 230 203 209 217 219 223 221 224 224 226 229 233 238 241 250 266 283 279
223 222 229 237 241 239 224 218 225 236 232 229 227 228 228 229 239 250 244 218 221 240 241 237 246 250 219 205 212 220 223 226 218 220 224 228 227 229 235 240 245 249 253 260
203 222 224 231 236 235 228 224 224 229 228 227 230 229 224 227 244 254 252 237 234 242 242 239 247 239 208 208 212 221 226 227 217 220 224 227 229 231 233 234 239 246 251 253
213 220 216 216 221 226 230 227 222 223 227 230 224 212 211 219 236 249 253 248 251 262 255 247 243 224 211 213 214 217 217 221 222 227 231 232 235 234 233 236 241 246 261 260
216 223 225 223 220 214 221 222 222 222 224 215 207 217 223 230 238 248 245 228 240 258 262 246 241 218 218 220 214 212 214 218 226 233 235 237 236 233 232 236 241 244 247 252
217 219 218 221 214 205 212 216 210 213 216 204 205 219 233 239 238 239 231 236 236 244 255 233 219 217 219 219 211 210 212 217 225 230 231 232 235 238 238 238 241 243 245 246
212 209 205 206 214 214 212 205 193 208 214 196 203 220 232 240 230 220 227 252 257 248 246 227 220 226 220 214 206 209 213 218 222 226 229 233 237 240 243 245 247 247 248 251
206 203 204 202 202 218 223 202 192 197 194 198 213 222 231 241 236 232 234 241 260 243 232 229 229 230 227 211 206 210 216 220 223 224 226 229 232 238 242 244 249 252 254 252
199 194 195 200 202 207 205 189 193 194 202 206 211 219 227 234 227 227 254 251 250 243 234 231 242 238 221 203 210 217 222 224 228 230 232 232 234 237 241 245 249 253 257 260
201 197 200 194 164 163 203 225 208 208 213 219 222 220 217 238 255 246 256 260 246 244 239 239 240 233 213 208 214 221 225 229 232 236 238 241 242 243 245 247 252 255 256 261
189 173 154 155 175 207 222 210 171 186 198 240 262 259 242 226 234 257 262 256 256 247 245 247 243 229 209 213 219 225 230 232 235 237 238 242 245 247 250 250 252 257 259 261
166 180 195 210 212 195 171 162 180 203 203 250 278 273 276 274 262 260 258 256 250 246 246 246 230 214 215 220 226 232 235 237 238 237 239 244 249 252 253 254 256 258 260 262
71 70 69 47 17 33 112 158 195 222 220 224 257 259 255 261 263 266 267 264 257 251 247 243 234 227 227 229 236 241 242 241 239 240 241 244 249 252 254 254 258 259 261 263